Hillsdale, MI

10:12 PM EST on November 21, 2019 (GMT -0500)
Hillsdale Municipal

Weather History for KJYM - September, 2019

Change the Weather History Date:

Monday, September 30, 2019

  Actual Average Record
Temperature  
Mean Temperature 70 °F -  
Max Temperature 80 °F 66 °F 85 °F (1986)
Min Temperature 60 °F 44 °F 30 °F (1993)
Cooling Degree Days 5    
Growing Degree Days 20 (Base 50)    
Moisture  
Dew Point 65 °F    
Average Humidity 89    
Maximum Humidity 98    
Minimum Humidity 72    
Precipitation  
Precipitation 1.15 in - - ()
Sea Level Pressure  
Sea Level Pressure 30.10 in    
Wind  
Wind Speed 6 mph ()    
Max Wind Speed 9 mph    
Max Gust Speed -    
Visibility 6.0 miles    
Events Fog , Rain    
Averages and records for this station are not official NWS values.
T = Trace of Precipitation, MM = Missing Value Source: Averaged Metar Reports

Daily Weather History Graph

Daily Weather History Graph

Search for Another Location

Airport or City:

Astronomy

Sep. 30, 2019 Rise Set
Actual Time 7:33 AM EDT 7:22 PM EDT
Civil Twilight 7:06 AM EDT 7:49 PM EDT
Nautical Twilight 6:33 AM EDT 8:22 PM EDT
Astronomical Twilight 6:01 AM EDT 8:54 PM EDT
Moon 9:38 AM EDT (9/30) 8:55 PM EDT (9/30)
Length of Visible Light 12h 43m
Length of Day
11h 48m
Waxing Crescent, 5% of the Moon is Illuminated
Sep 30
Waxing Crescent
Oct 5
First Quarter
Oct 13
Full
Oct 21
Last Quarter
Oct 27
New

Hourly Weather History & Observations

Time (EDT) Temp. Heat Index Dew Point Humidity Pressure Visibility Wind Dir Wind Speed Gust Speed Precip Events Conditions
12:18 AM 60.4 °F - 59.5 °F 97% 30.18 in 3.0 mi ESE 6.9 mph - N/A   Overcast
12:36 AM 60.6 °F - 59.7 °F 97% 30.18 in 2.5 mi East 5.8 mph - N/A   Overcast
12:55 AM 60.8 °F - 59.9 °F 97% 30.18 in 2.5 mi ESE 6.9 mph - N/A   Overcast
12:56 AM 60.8 °F - 59.9 °F 97% 30.18 in 2.5 mi ESE 5.8 mph - N/A   Overcast
1:15 AM 60.8 °F - 59.9 °F 97% 30.17 in 2.5 mi East 6.9 mph - 0.01 in Rain Rain
1:16 AM 60.8 °F - 59.9 °F 97% 30.17 in 2.5 mi East 6.9 mph - 0.01 in Rain Light Rain
1:39 AM 60.8 °F - 59.9 °F 97% 30.18 in 4.0 mi East 5.8 mph - 0.01 in   Overcast
1:57 AM 60.8 °F - 59.9 °F 97% 30.18 in 4.0 mi ESE 4.6 mph - 0.01 in Rain Light Rain
2:15 AM 60.8 °F - 59.9 °F 97% 30.17 in 4.0 mi East 4.6 mph - 0.02 in Rain Light Rain
2:16 AM 60.8 °F - 59.9 °F 97% 30.17 in 4.0 mi East 3.5 mph - 0.02 in Rain Light Rain
2:35 AM 60.8 °F - 59.9 °F 97% 30.16 in 5.0 mi East 6.9 mph - 0.02 in Rain Light Rain
2:36 AM 60.8 °F - 59.9 °F 97% 30.16 in 5.0 mi East 6.9 mph - 0.02 in Rain Light Rain
2:55 AM 60.6 °F - 59.7 °F 97% 30.16 in 5.0 mi East 5.8 mph - 0.03 in   Overcast
3:00 AM 60.8 °F - 59.9 °F 97% 30.16 in 7.0 mi East 8.1 mph - N/A   Overcast
3:18 AM 60.4 °F - 59.5 °F 97% 30.16 in 5.0 mi ESE 4.6 mph - N/A   Overcast
3:36 AM 60.8 °F - 59.9 °F 97% 30.16 in 4.0 mi ESE 4.6 mph - N/A Rain Light Rain
3:55 AM 60.8 °F - 59.9 °F 97% 30.16 in 3.0 mi East 5.8 mph - 0.02 in Rain Rain
4:15 AM 60.8 °F - 59.9 °F 97% 30.15 in 4.0 mi East 5.8 mph - N/A   Light Drizzle
4:16 AM 60.8 °F - 59.9 °F 97% 30.15 in 4.0 mi East 5.8 mph - N/A   Light Drizzle
4:38 AM 60.8 °F - 59.9 °F 97% 30.15 in 5.0 mi ESE 4.6 mph - N/A   Overcast
4:57 AM 60.8 °F - 59.9 °F 97% 30.15 in 4.0 mi East 4.6 mph - N/A   Overcast
5:15 AM 60.8 °F - 59.9 °F 97% 30.15 in 3.0 mi East 5.8 mph - N/A   Overcast
5:35 AM 60.8 °F - 59.9 °F 97% 30.15 in 2.5 mi ESE 4.6 mph - N/A   Overcast
5:36 AM 60.8 °F - 59.9 °F 97% 30.15 in 2.5 mi ESE 5.8 mph - N/A   Overcast
5:55 AM 60.6 °F - 59.9 °F 97% 30.15 in 1.5 mi East 4.6 mph - N/A   Overcast
6:00 AM 60.4 °F - 59.7 °F 97% 30.14 in 1.5 mi ESE 6.9 mph - 0.01 in Rain Rain
6:18 AM 60.4 °F - 59.5 °F 97% 30.14 in 2.0 mi East 8.1 mph - 0.05 in Rain Heavy Rain
6:36 AM 60.4 °F - 59.5 °F 97% 30.15 in 3.0 mi East 5.8 mph - 0.05 in Rain Light Rain
6:55 AM 60.4 °F - 59.5 °F 97% 30.15 in 1.0 mi East 6.9 mph - 0.45 in Rain Heavy Rain
6:56 AM 60.4 °F - 59.5 °F 97% 30.15 in 0.8 mi ESE 6.9 mph - 0.51 in Rain Heavy Rain
7:15 AM 61.7 °F - 60.8 °F 97% 30.16 in 1.2 mi SSE 5.8 mph - 0.42 in Rain Heavy Rain
7:39 AM 61.7 °F - 60.8 °F 97% 30.16 in 7.0 mi NE 5.8 mph - 0.58 in   Overcast
7:57 AM 61.9 °F - 61.2 °F 97% 30.16 in 10.0 mi ESE 5.8 mph - 0.58 in   Overcast
8:15 AM 62.1 °F - 61.2 °F 97% 30.16 in 10.0 mi ESE 5.8 mph - N/A   Overcast
8:16 AM 62.1 °F - 61.2 °F 97% 30.16 in 10.0 mi ESE 5.8 mph - N/A   Overcast
8:35 AM 61.9 °F - 61.0 °F 97% 30.16 in 7.0 mi SE 8.1 mph - N/A   Overcast
8:36 AM 61.9 °F - 61.0 °F 97% 30.16 in 7.0 mi SE 8.1 mph - N/A   Overcast
8:55 AM 61.7 °F - 61.0 °F 97% 30.16 in 4.0 mi SE 5.8 mph - N/A   Overcast
9:18 AM 61.9 °F - 61.0 °F 97% 30.16 in 0.8 mi SE 5.8 mph - N/A   Overcast
9:36 AM 62.4 °F - 61.7 °F 97% 30.16 in 0.5 mi SE 5.8 mph - N/A Fog Fog
9:55 AM 62.6 °F - 61.7 °F 97% 30.17 in 0.2 mi SE 4.6 mph - N/A Fog Fog
9:56 AM 62.6 °F - 61.7 °F 97% 30.17 in 0.2 mi SE 4.6 mph - N/A Fog Fog
10:15 AM 63.3 °F - 62.4 °F 97% 30.16 in 0.2 mi SE 4.6 mph - N/A Fog Fog
10:16 AM 63.3 °F - 62.6 °F 97% 30.16 in 0.2 mi SE 5.8 mph - N/A Fog Fog
10:39 AM 64.0 °F - 63.3 °F 97% 30.16 in 0.5 mi SE 3.5 mph - N/A Fog Fog
10:57 AM 64.6 °F - 63.9 °F 98% 30.16 in 0.2 mi SSE 6.9 mph - N/A Fog Fog
11:15 AM 65.5 °F - 64.8 °F 98% 30.15 in 0.5 mi SSE 5.8 mph - N/A Fog Fog
11:16 AM 65.7 °F - 64.8 °F 97% 30.15 in 0.5 mi SSE 4.6 mph - N/A Fog Fog
11:36 AM 66.6 °F - 65.7 °F 97% 30.15 in 1.8 mi SSE 9.2 mph - N/A   Overcast
11:55 AM 67.1 °F - 66.0 °F 96% 30.14 in 2.5 mi SSE 8.1 mph - N/A   Overcast
12:00 PM 67.1 °F - 65.8 °F 96% 30.14 in 2.5 mi SSE 6.9 mph - N/A   Overcast
12:18 PM 67.1 °F - 65.8 °F 96% 30.14 in 1.5 mi SSE 9.2 mph - N/A   Overcast
12:36 PM 67.3 °F - 65.8 °F 95% 30.14 in 1.5 mi SSE 9.2 mph - N/A   Overcast
12:55 PM 68.0 °F - 66.4 °F 95% 30.13 in 2.0 mi SSE 5.8 mph - N/A   Overcast
12:56 PM 68.0 °F - 66.6 °F 95% 30.13 in 2.0 mi SSE 6.9 mph - N/A   Overcast
1:15 PM 69.4 °F - 67.3 °F 93% 30.12 in 3.0 mi SSE 8.1 mph - N/A   Overcast
1:16 PM 69.4 °F - 67.3 °F 93% 30.12 in 4.0 mi South 8.1 mph - N/A   Overcast
1:39 PM 70.0 °F - 67.3 °F 91% 30.11 in 4.0 mi SSE 4.6 mph - N/A   Overcast
1:57 PM 71.8 °F - 68.2 °F 88% 30.11 in 5.0 mi South 6.9 mph - N/A   Overcast
2:15 PM 74.3 °F - 68.7 °F 83% 30.10 in 7.0 mi SSE 6.9 mph - N/A   Overcast
2:16 PM 74.3 °F - 68.7 °F 83% 30.10 in 7.0 mi South 6.9 mph - N/A   Overcast
2:35 PM 74.1 °F - 68.5 °F 83% 30.08 in 7.0 mi SE 6.9 mph - N/A   Mostly Cloudy
2:36 PM 74.1 °F - 68.7 °F 83% 30.08 in 7.0 mi SE 6.9 mph - N/A   Mostly Cloudy
2:55 PM 75.6 °F - 69.3 °F 81% 30.07 in 10.0 mi SSE 8.1 mph - N/A   Scattered Clouds
3:18 PM 77.4 °F - 69.8 °F 77% 30.06 in 10.0 mi South 8.1 mph - N/A   Clear
3:36 PM 77.7 °F - 70.0 °F 77% 30.06 in 10.0 mi SSE 6.9 mph - N/A   Clear
3:55 PM 79.2 °F - 70.0 °F 73% 30.05 in 10.0 mi SSE 6.9 mph - N/A   Clear
3:56 PM 79.3 °F - 70.0 °F 73% 30.05 in 10.0 mi South 6.9 mph - N/A   Clear
4:15 PM 79.7 °F - 70.0 °F 72% 30.04 in 10.0 mi South 6.9 mph - N/A   Clear
4:16 PM 79.7 °F - 70.0 °F 72% 30.04 in 10.0 mi South 8.1 mph - N/A   Clear
4:39 PM 80.4 °F 83.9 °F 70.5 °F 72% 30.03 in 10.0 mi South 8.1 mph - N/A   Clear
4:57 PM 80.4 °F 83.9 °F 70.7 °F 72% 30.03 in 10.0 mi South 9.2 mph - N/A   Clear
5:15 PM 79.7 °F - 70.7 °F 74% 30.03 in 10.0 mi South 8.1 mph - N/A   Clear
5:16 PM 79.7 °F - 70.7 °F 74% 30.03 in 10.0 mi South 6.9 mph - N/A   Clear
5:35 PM 80.1 °F 83.6 °F 71.1 °F 74% 30.03 in 10.0 mi South 5.8 mph - N/A   Clear
5:36 PM 80.1 °F 83.6 °F 71.1 °F 74% 30.03 in 10.0 mi South 5.8 mph - N/A   Clear
5:55 PM 80.2 °F 84.0 °F 71.6 °F 75% 30.02 in 10.0 mi South 5.8 mph - N/A   Clear
6:00 PM 80.1 °F 83.8 °F 71.8 °F 76% 30.03 in 10.0 mi Calm Calm - N/A   Clear
6:17 PM 80.4 °F 84.4 °F 72.0 °F 75% 30.03 in 10.0 mi South 5.8 mph - N/A   Clear
6:36 PM 79.9 °F - 71.2 °F 75% 30.03 in 10.0 mi SSW 3.5 mph - N/A   Scattered Clouds
6:55 PM 79.2 °F - 69.3 °F 72% 30.03 in 10.0 mi Calm Calm - N/A   Scattered Clouds
6:56 PM 79.0 °F - 69.1 °F 72% 30.03 in 10.0 mi Calm Calm - N/A   Scattered Clouds
7:15 PM 76.3 °F - 69.1 °F 78% 30.03 in 10.0 mi SSW 3.5 mph - N/A   Clear
7:16 PM 76.3 °F - 68.9 °F 78% 30.03 in 10.0 mi SSW 3.5 mph - N/A   Clear
7:39 PM 73.9 °F - 68.7 °F 84% 30.03 in 10.0 mi Calm Calm - N/A   Scattered Clouds
7:57 PM 71.2 °F - 68.7 °F 92% 30.03 in 10.0 mi South 3.5 mph - N/A   Scattered Clouds
8:15 PM 72.9 °F - 68.4 °F 86% 30.03 in 10.0 mi SSE 3.5 mph - N/A   Clear
8:35 PM 71.2 °F - 67.8 °F 89% 30.03 in 10.0 mi South 4.6 mph - N/A   Clear
8:36 PM 71.2 °F - 67.6 °F 88% 30.03 in 10.0 mi South 4.6 mph - N/A   Clear
8:55 PM 72.9 °F - 67.3 °F 83% 30.03 in 10.0 mi South 4.6 mph - N/A   Clear
9:00 PM 72.9 °F - 67.1 °F 82% 30.03 in 10.0 mi South 3.5 mph - N/A   Clear
9:18 PM 72.7 °F - 67.3 °F 83% 30.03 in 10.0 mi South 3.5 mph - N/A   Clear
9:36 PM 72.1 °F - 67.1 °F 84% 30.02 in 10.0 mi South 3.5 mph - N/A   Clear
9:55 PM 71.6 °F - 67.1 °F 86% 30.02 in 10.0 mi South 3.5 mph - N/A   Clear
10:15 PM 71.6 °F - 67.1 °F 86% 30.02 in 10.0 mi South 3.5 mph - N/A   Clear
10:16 PM 71.6 °F - 67.1 °F 86% 30.02 in 10.0 mi South 3.5 mph - N/A   Clear
10:38 PM 72.0 °F - 66.9 °F 84% 30.02 in 10.0 mi South 4.6 mph - N/A   Clear
10:57 PM 71.8 °F - 66.7 °F 84% 30.02 in 10.0 mi South 4.6 mph - N/A   Clear
11:15 PM 72.0 °F - 66.7 °F 84% 30.02 in 10.0 mi South 4.6 mph - N/A   Clear
11:35 PM 72.5 °F - 66.7 °F 82% 30.02 in 10.0 mi SSW 6.9 mph - N/A   Clear
11:36 PM 72.5 °F - 66.7 °F 82% 30.02 in 10.0 mi SSW 6.9 mph - N/A   Clear
11:55 PM 72.7 °F - 66.6 °F 81% 30.01 in 10.0 mi SSW 6.9 mph - N/A   Clear
11:59 PM 72.7 °F - 66.4 °F 81% 30.01 in 10.0 mi SSW 5.8 mph - N/A   Clear